{"data":{"norad_id":56907,"epoch":"2026-05-24T22:35:29.277312Z","epoch_age_seconds":73436,"freshness":"FRESH","line1":"1 56907U 23083AH  26144.94131108  .00000335  00000+0  21707-4 0  9998","line2":"2 56907  43.0040 359.7305 0001404 264.5342  95.5350 15.27577171163579","mean_motion":15.27577171,"eccentricity":0.0001404,"inclination_deg":43.004,"raan_deg":359.7305,"arg_perigee_deg":264.5342,"mean_anomaly_deg":95.535,"bstar":2.1707e-5,"rev_number":16357,"period_min":94.26692329117,"perigee_km":482.09425537923,"apogee_km":484.02087881367,"semimajor_km":6861.1945670965,"source":"CELESTRAK","updated_at":"2026-05-25T13:38:18.202844Z"}}